Regional Weather Roundup
Issued by NWS

Home | Current Version | Previous Version | Text Only | Print | Product List | Glossary On
Versions: 1 2 3 4 5 6 7 8 9 10 11 12 13 14 15 16 17 18 19 20 21 22 23 24 25 26 27 28 29 30 31 32 33 34 35 36 37 38 39 40 41 42 43 44 45 46 47 48 49 50
000
ASUS43 KMPX 300510
RWRMN
WEATHER ROUNDUP FOR MINNESOTA
NATIONAL WEATHER SERVICE TWIN CITIES/CHANHASSEN MN
1200 AM CDT TUE AUG 30 2016


NOTE: "FAIR" INDICATES FEW OR NO CLOUDS BELOW 12,000 FEET WITH NO
SIGNIFICANT WEATHER AND/OR OBSTRUCTIONS TO VISIBILITY. N/A MEANS
CURRENT SKY AND/OR WEATHER CONDITIONS ARE NOT AVAILABLE.

MNZ060>063-068>070-300600-
   Twin Cities Metro

CITY           SKY/WX    TMP DP  RH WIND       PRES   REMARKS
TWIN CITIES    TSTM      69  66  90 N14       30.19R VSB 3/4
ST PAUL        TSTM      71  68  90 NE5       30.18R FOG
CRYSTAL        LGT RAIN  68  64  87 W6        30.20R FOG
BLAINE         DRIZZLE   70  68  94 CALM      30.20R
LAKEVILLE      PTCLDY    70  70 100 CALM      30.16S
EDEN PRAIRIE   CLOUDY    74  62  66 N13G18    30.18R
LAKEVILLE      PTCLDY    70  70 100 CALM      30.16S
SOUTH ST PAUL  LGT RAIN  73  67  80 E7        30.18R
LAKE ELMO      CLOUDY    68  68 100 E9        30.21R
$$
MNZ001>005-007-008-013>017-022>024-027-028-300600-
   Northwest Minnesota

CITY           SKY/WX    TMP DP  RH WIND       PRES   REMARKS
BEMIDJI        CLEAR     55  54  97 NW5       30.19S
HALLOCK        CLEAR     55  52  88 CALM      30.19S
ROSEAU         CLEAR     55  50  82 CALM      30.19R
WARROAD        CLEAR     54  52  94 CALM      30.20R
THIEF RVR FALL CLEAR     56  54  93 CALM      30.21R
CROOKSTON      CLEAR     57  52  82 CALM      30.20S
FOSSTON        CLEAR     52  50  93 CALM      30.21S
DETROIT LAKES  CLEAR     64  57  77 N5        30.21R
MOORHEAD       CLEAR     61  54  77 N7        30.21R
PARK RAPIDS    CLEAR     62  59  90 N5        30.19S
MAHNOMEN       FAIR      59  57  92 N3        30.20S
$$
MNZ006-009>011-018-025>026-300600-
   North Central Minnesota

CITY           SKY/WX    TMP DP  RH WIND       PRES   REMARKS
BAUDETTE       CLEAR     56  52  86 W6        30.17R
FLAG ISLAND    CLEAR     63  54  72 CALM      30.17R
INTL FALLS     CLEAR     57  56  96 CALM      30.16R
WASKISH        CLEAR     63  55  77 NW5       30.18S
BIG FORK       CLEAR     61  57  88 CALM      30.18S
LONGVILLE      PTCLDY    63  61  94 CALM      30.18R
GRAND RAPIDS   CLEAR     66  63  90 NW7       30.18S
CRANE LAKE     MOCLDY    57  57 100 CALM      30.16R
ORR            PTCLDY    63  61  94 CALM      30.13F
COOK           CLEAR     63  63 100 CALM      30.15F
WALKER         FAIR      59  58  96 NW5       30.18S
$$
MNZ012-019>021-037-300600-
   Northeast Minnesota

CITY           SKY/WX    TMP DP  RH WIND       PRES   REMARKS
DULUTH         CLOUDY    67  65  93 NW9       30.12F
ELY            FOG       64  63  94 CALM      30.13F VSB 3/4
HIBBING        CLEAR     63  62  97 NW9       30.14F
EVELETH        PTCLDY    65  65  98 W3        30.15S
DULUTH HARBOR  CLOUDY    66  64  94 S7        30.12R
TWO HARBORS    CLOUDY    70  64  83 SW6       30.09S
SILVER BAY     CLOUDY    70  66  88 NW5       30.08F
GRAND MARAIS     N/A     65  64  97 SW3       30.08S
G MARAIS ARPRT CLOUDY    66  63  88 CALM      30.13F
$$
MNZ029>031-032-039>041-046>048-054>057-064-300600-
   West Central Minnesota

CITY           SKY/WX    TMP DP  RH WIND       PRES   REMARKS
FERGUS FALLS   PTCLDY    64  64 100 N5        30.19S
WHEATON        CLOUDY    66  64  94 NW5       30.19S
MORRIS         CLOUDY    70  66  88 N8        30.15R
ALEXANDRIA     CLOUDY    70  65  84 N10       30.19R
ELBOW LAKE     FAIR      66  64  91 N6        30.18R
WADENA         CLOUDY    61  61 100 N5        30.18S
GLENWOOD       CLOUDY    70  66  88 N8        30.19R
APPLETON       MOCLDY    73  66  78 N5        30.17R
BENSON         PTCLDY    72  66  83 CALM      30.17R
ORTONVILLE     CLOUDY    72  64  78 CALM      30.18R
MADISON        PTCLDY    73  70  88 NW3       30.18R
WILLMAR        CLOUDY    75  72  88 NE7       30.16R
$$
MNZ033>034-036-042>043-049>051-058-059-300600-
   Central Minnesota

CITY           SKY/WX    TMP DP  RH WIND       PRES   REMARKS
ST CLOUD       CLOUDY    67  67 100 S7        30.16F
SAUK CENTRE    CLOUDY    72  67  85 N8        30.18R
PAYNESVILLE    CLOUDY    72  71  95 NE12G17   30.17R
AITKIN         HAZE      66  63  88 CALM      30.16R VSB 1/2
PINE RIVER     CLEAR     64  63  94 CALM      30.21R
BRAINERD       CLOUDY    69  67  93 CALM      30.17R
STAPLES        CLOUDY    64  63  94 CALM      30.19R
LONG PRAIRIE   FAIR      68  64  88 NW8       30.19R
LITTLE FALLS   CLOUDY    68  63  83 CALM      30.18R
LITCHFIELD     CLOUDY    70  68  94 E15       30.19R
BUFFALO        TSTM      67  65  91 CALM      30.21S
MAPLE LAKE     TSTM      69  68  96 CALM      30.22R
HUTCHINSON     CLOUDY    72  67  85 N13G22    30.21R
$$
MNZ037-044-045-052-053-300600-
   East Central Minnesota

CITY           SKY/WX    TMP DP  RH WIND       PRES   REMARKS
PRINCETON      CLOUDY    68  64  88 CALM      30.16S
MORA           CLOUDY    64  64 100 CALM      30.19R
CAMBRIDGE      DRIZZLE   70  63  78 CALM      30.16R
RUSH CITY      LGT RAIN  67  64  89 S6        30.18R
MOOSE LAKE       N/A     63  61  94 CALM      30.13F FOG
HINCKLEY       FAIR      64  64 100 SW3       30.16R
CLOQUET        CLOUDY    66  63  88 W8        30.14S
MCGREGOR       CLOUDY    68  64  88 SW5       30.16S
$$
MNZ071>073-080-081-089-090-097-098-300600-
   Southwest Minnesota

CITY           SKY/WX    TMP DP  RH WIND       PRES   REMARKS
MONTEVIDEO     MOCLDY    73  70  88 N6        30.17R
GRANITE FALLS  PTCLDY    74  71  89 W10       30.15S
CANBY          CLEAR     73  69  90 W8        30.18F
MARSHALL       CLOUDY    73  69  87 W12       30.16R
REDWOOD FALLS  CLOUDY    73  68  84 SW10      30.13S
OLIVIA         CLOUDY    73  70  88 W5        30.13R
PIPESTONE        N/A     70  66  88 S3        30.19S
WINDOM         CLOUDY    73  70  88 S6        30.17F
WORTHINGTON    MOCLDY    72  71  97 S7        30.20F
JACKSON        CLOUDY    72  68  88 SW8       30.19F
TRACY          CLOUDY    73  69  86 SW8       30.16S
SLAYTON        MOCLDY    70  68  94 SW3       30.19S
$$
MNZ065>067-074>077-082>085-091>093-300600-
   South Central Minnesota

CITY           SKY/WX    TMP DP  RH WIND       PRES   REMARKS
NEW ULM        CLOUDY    73  72  94 S8        30.14F
ST JAMES       CLOUDY    70  68  94 S6        30.16F
FAIRMONT       CLOUDY    69  68  96 SW6       30.16F FOG
GLENCOE        CLOUDY    72  70  92 E12G20    30.17R
FARIBAULT      CLOUDY    70  68  94 CALM      30.17F
OWATONNA       CLOUDY    70  66  88 CALM      30.17F
WASECA         CLOUDY    68  64  88 CALM      30.18F
ALBERT LEA     MOCLDY    72  68  88 CALM      30.18F
$$
MNZ078>079-086>088-094>096-300600-
   Southeast Minnesota

CITY           SKY/WX    TMP DP  RH WIND       PRES   REMARKS
ROCHESTER      FOG       68  68 100 S6        30.19F VSB 1/2
RED WING       CLOUDY    70  68  94 CALM      30.15F
STANTON        CLOUDY    72  66  83 S3        30.15S
DODGE CENTER   MOCLDY    70  66  88 SW6       30.18F
WINONA         CLOUDY    72  70  94 CALM      30.17F
AUSTIN         MOCLDY    70  68  94 CALM      30.18F FOG
PRESTON        CLOUDY    68  67  95 S6        30.20F FOG
$$
ABBREVIATIONS USED IN REMARKS
   TC - TEMPERATURES IN CELSIUS
  WCI - WIND CHILL INDEX
   HX - HEAT INDEX
  VSB - VISIBILITY
$$




USA.gov is the U.S. government's official web portal to all federal, state and local government web resources and services.